GFSNE_con_3kmhel_129.txt.gz
Helicity
362 531 318 366 443 291 270 305 317 340 247 287 335 367 435 409 394 403 419 415 409 404 464 383 305 361 347 297 249 261 231 188 216 212 234 209 187 182
313 473 339 362 361 254 258 216 233 280 414 453 478 466 413 435 408 459 449 450 420 467 444 322 298 336 318 252 237 211 221 208 215 197 206 187 223 224
215 266 324 451 407 282 208 223 251 248 422 520 529 479 480 492 480 474 427 385 358 350 311 334 232 308 321 264 237 177 153 170 192 204 221 254 239 274
192 280 384 481 465 165 207 173 248 371 486 509 495 513 484 421 433 473 461 390 350 336 310 212 263 208 233 220 181 171 171 185 216 231 255 247 242 247
160 231 216 407 249 134 136 238 343 497 497 518 504 517 549 440 501 497 459 436 354 304 189 255 226 185 181 198 207 148 159 177 203 210 247 233 220 212
136 125 186 222 182 157 258 200 390 518 510 547 513 501 456 428 440 457 446 428 290 221 250 213 184 160 186 184 169 167 200 209 173 188 213 203 194 196
125 139 235 325 308 404 368 234 271 437 484 511 498 442 479 415 390 429 426 275 321 253 229 203 173 150 147 160 184 171 154 164 187 187 171 153 160 163
133 161 185 221 263 309 361 521 211 349 452 440 384 352 344 353 359 405 455 316 263 258 286 221 231 234 230 184 175 162 161 198 163 150 156 169 171 150
139 246 380 491 582 594 610 539 642 459 347 400 404 416 522 531 536 460 440 446 373 342 280 300 261 240 212 174 156 171 176 140 153 164 163 155 146 164
302 329 384 487 854 780 621 590 727 678 524 535 550 507 432 413 485 482 512 508 470 401 331 301 223 280 208 180 168 191 175 175 161 157 167 157 157 154
276 317 420 540 569 712 700 828 900 834 779 613 648 521 496 450 389 521 475 448 393 349 290 279 260 246 245 228 181 203 180 175 191 182 186 157 152 133
319 340 364 496 713 709 817 884 813 791 836 893 969 951 632 577 533 391 310 331 312 291 226 229 240 224 213 196 191 205 224 205 172 196 201 188 173 119
320 339 378 411 455 658 861 796 862 852 823 677 676 595 488 486 432 400 361 283 272 241 179 198 203 217 227 202 187 210 230 224 166 187 218 202 185 160
367 345 320 346 438 509 497 453 559 599 586 546 530 464 423 387 364 337 335 297 261 238 198 176 188 173 177 205 209 201 247 210 162 197 197 175 154 136
384 323 321 369 437 441 427 475 515 484 479 494 468 417 361 320 342 348 279 228 218 179 157 157 165 159 173 177 192 208 241 187 170 188 164 162 125 110
471 425 405 444 471 473 483 466 467 462 428 442 448 408 319 330 307 202 201 172 174 170 143 124 127 133 152 152 167 188 197 227 195 154 129 134 135 132
491 490 506 516 556 553 552 530 545 455 446 423 375 290 268 262 279 225 204 195 207 165 132 106 101 114 125 124 155 176 190 174 143 141 115 123 153 123
584 623 647 647 617 563 519 492 454 415 364 350 319 269 241 211 226 233 216 195 187 154 132 127 139 161 171 169 202 187 162 158 155 142 129 115 139 137
756 793 793 693 620 605 512 426 380 325 274 240 195 178 200 219 229 208 185 189 185 174 144 98 134 167 198 208 157 135 186 179 156 177 153 155 133 121
675 638 606 567 551 505 397 331 310 289 264 242 231 220 194 179 172 174 169 162 157 162 157 139 145 150 162 151 184 173 124 146 167 153 138 120 125 82
559 580 498 431 380 371 325 288 259 258 254 231 207 186 172 155 154 155 151 148 155 147 155 142 122 99 113 122 153 153 212 153 95 94 94 73 78 97
479 438 396 350 297 265 232 214 209 196 203 201 171 148 149 135 141 150 142 142 149 132 119 127 114 138 142 132 136 148 187 176 119 59 38 46 57 62
328 291 251 213 196 188 172 168 163 155 152 165 157 141 147 140 126 133 146 142 134 141 133 132 148 144 159 150 137 146 155 125 103 143 192 162 139 51

GFSNE_con_3kmhel_135.txt.gz
Helicity
257 277 269 222 230 266 289 375 479 390 415 338 287 228 221 232 251 258 260 278 344 361 372 391 396 397 377 311 339 336 276 277 283 276 219 206 205 176
240 231 236 202 217 203 332 433 436 358 477 524 418 377 321 386 366 367 421 486 476 500 469 451 414 383 330 361 387 343 273 295 245 211 193 193 198 182
219 225 225 205 210 202 334 488 499 551 576 744 545 416 490 461 481 527 579 601 576 538 524 505 468 442 356 336 366 390 332 286 254 216 184 193 201 214
205 187 196 192 151 168 257 561 482 791 704 862 658 629 474 511 584 590 574 555 518 468 463 429 428 445 447 349 217 356 314 264 254 198 187 200 216 208
194 228 221 188 135 159 180 249 526 523 846 930 723 699 657 531 686 704 631 590 484 345 386 406 405 352 311 390 160 178 250 215 189 167 189 203 225 245
213 204 179 126 94 139 180 275 537 625 868 881 749 668 645 595 668 710 635 516 456 412 435 406 310 348 289 289 166 88 146 145 154 156 166 236 223 206
162 168 158 128 94 88 117 206 373 634 714 758 771 712 653 616 577 608 612 551 484 432 490 457 267 262 231 221 146 144 139 159 157 162 206 212 197 188
148 168 166 126 99 93 103 146 542 714 681 885 808 750 583 581 654 643 718 634 446 388 539 405 287 290 285 240 139 183 166 164 167 182 187 196 186 176
156 179 171 175 127 106 89 128 198 565 779 682 615 618 712 585 684 653 543 506 517 425 495 335 385 330 273 226 179 163 146 155 155 165 176 166 155 144
204 197 163 168 129 108 172 234 322 413 496 727 781 660 562 730 630 652 615 617 462 457 461 387 430 361 252 278 161 136 150 136 141 162 154 153 139 157
218 204 166 179 149 153 239 310 407 559 581 534 474 439 650 659 767 887 717 613 630 522 475 426 517 401 309 230 175 149 155 166 169 169 159 145 172 179
252 219 195 169 152 196 231 308 426 499 670 778 741 724 632 604 723 674 496 478 604 594 431 515 499 452 306 242 209 193 178 172 184 192 173 183 172 175
257 230 221 188 210 226 272 278 434 648 796 870 946 885 722 502 497 378 498 511 776 551 419 551 443 399 300 234 225 207 195 197 193 187 178 160 159 163
296 278 245 248 264 309 370 455 615 716 740 800 854 1080 1160 1030 791 748 813 715 568 312 366 462 332 308 295 298 285 228 213 206 193 173 165 153 143 135
338 305 290 298 341 377 416 520 599 640 701 874 1020 1078 816 643 735 886 757 800 794 532 417 329 222 297 305 256 253 240 244 176 167 163 164 154 148 146
503 494 409 402 400 440 526 585 527 521 520 598 706 650 610 635 740 634 603 622 593 522 404 308 306 283 252 238 252 238 186 173 156 158 167 153 138 135
502 434 379 377 400 420 440 440 446 488 554 580 593 545 598 593 572 467 433 387 345 327 372 349 282 253 227 210 247 207 191 180 160 148 146 163 156 131
408 398 403 380 411 414 415 418 416 446 460 474 493 484 490 474 457 431 383 385 374 348 323 253 218 247 245 242 195 182 182 161 147 135 126 138 164 151
353 398 476 458 487 480 473 479 476 450 437 458 473 484 477 469 422 390 371 403 399 331 284 177 145 158 189 176 151 140 144 135 143 141 131 123 140 172
509 493 539 578 559 563 547 556 567 574 588 556 531 498 471 425 381 347 313 298 278 255 239 203 182 141 120 111 132 120 108 122 127 134 137 129 125 95
536 622 628 625 571 617 662 646 582 592 578 552 509 441 390 312 292 267 261 224 176 159 187 180 148 108 119 126 138 134 117 86 88 115 125 157 171 180
329 422 504 516 596 612 563 528 515 534 489 445 370 303 280 273 273 236 197 191 167 142 135 125 123 110 113 116 123 112 112 113 112 102 85 99 148 189
375 391 387 428 456 474 435 423 447 396 354 324 287 268 249 264 224 192 165 138 121 126 116 118 115 125 126 119 116 113 114 134 139 177 195 151 100 55

GFSNE_con_3kmhel_141.txt.gz
Helicity
182 212 190 175 222 220 248 268 240 176 213 228 186 191 209 317 300 224 121 124 121 106 92 107 139 189 184 207 281 317 318 329 304 289 255 251 228 214
198 216 188 200 234 234 274 265 260 232 190 181 176 158 218 306 315 312 234 195 160 161 147 167 216 245 293 365 387 399 394 362 310 302 282 224 218 214
206 195 181 209 239 224 239 226 272 263 254 311 280 249 256 306 384 346 357 278 188 212 250 247 301 354 407 434 451 453 408 382 329 340 271 205 223 189
183 192 173 217 210 218 228 206 252 264 264 280 289 343 322 330 400 437 448 375 274 282 355 378 422 476 536 559 531 518 484 430 384 286 285 224 211 300
174 191 179 192 197 232 192 205 212 223 232 344 379 426 445 522 578 597 571 602 595 469 494 542 581 620 634 634 607 594 530 422 372 349 323 338 292 276
173 182 188 218 184 195 180 181 207 236 257 341 375 502 464 536 662 738 866 743 734 721 718 727 778 756 724 674 615 577 500 433 389 360 267 335 330 273
145 180 206 213 148 155 174 191 216 230 289 399 493 509 524 626 651 748 938 897 1011 871 794 775 778 749 691 617 500 459 430 338 314 323 260 228 283 230
141 155 162 189 175 127 177 205 235 248 325 377 408 411 447 528 679 795 862 952 859 672 781 810 702 646 580 522 458 436 385 311 340 215 198 217 222 267
149 152 184 214 174 175 167 192 180 178 289 342 359 358 448 532 696 801 877 842 1029 1038 957 726 649 617 565 428 358 366 354 382 310 270 247 233 183 207
127 207 185 256 189 196 196 171 162 184 226 326 245 245 292 461 669 747 763 857 854 881 901 878 600 600 612 468 348 347 356 321 289 230 225 175 166 135
69 170 323 231 223 174 187 165 151 145 208 197 258 255 341 411 580 731 778 876 857 819 869 846 802 704 651 507 433 364 337 285 255 224 169 186 141 93
87 201 221 208 143 152 158 164 146 118 232 275 309 358 381 449 573 620 798 798 878 964 933 874 880 886 719 604 443 455 308 304 173 172 175 147 80 93
75 120 194 164 158 187 190 202 151 216 246 287 353 413 429 428 456 511 530 657 862 808 834 843 702 852 724 558 539 374 350 327 222 182 153 95 62 73
62 84 135 134 133 203 261 251 231 269 313 343 364 397 434 426 445 556 600 648 614 517 412 645 777 976 898 684 519 432 395 279 239 220 146 100 86 86
79 95 80 109 186 180 194 227 293 311 342 386 405 479 542 632 749 827 835 759 668 570 385 365 495 748 702 569 489 414 351 238 201 149 133 113 106 112
121 167 192 263 268 211 237 334 313 306 346 388 432 458 493 549 615 626 634 646 629 582 484 423 445 524 443 287 304 396 325 272 166 124 119 110 111 113
142 187 218 268 298 334 313 351 342 347 382 356 413 462 503 545 533 514 554 556 546 536 530 552 543 490 483 390 442 369 292 263 148 133 121 117 109 98
155 143 180 192 211 272 339 363 347 332 329 362 415 445 472 490 488 491 488 454 530 437 464 520 573 586 636 643 399 288 240 200 142 123 132 122 113 108
144 142 179 194 250 317 345 329 363 330 317 343 409 447 486 476 463 435 424 477 479 496 436 389 366 322 326 350 335 219 184 157 148 138 116 109 128 122
131 129 172 198 264 284 323 348 396 377 391 369 427 467 486 496 471 483 418 424 492 491 452 389 346 318 318 300 281 222 164 142 121 118 113 105 96 83
168 156 168 202 208 295 335 409 471 453 487 490 468 499 515 497 515 494 490 447 406 401 426 435 388 283 220 203 261 191 151 155 134 117 112 105 115 122
192 183 193 188 234 302 342 435 470 563 608 636 601 602 581 553 562 543 513 503 505 460 444 379 319 276 240 202 218 186 137 117 111 104 85 85 123 154
242 210 232 237 245 300 295 316 368 395 503 508 588 638 591 596 521 480 462 455 416 431 388 354 283 248 264 215 159 132 118 110 111 109 99 134 116 96

GFSNE_con_3kmhel_147.txt.gz
Helicity
144 121 160 161 167 121 114 122 119 175 173 238 200 140 143 179 200 222 240 213 223 247 254 331 182 163 138 110 94 101 91 91 121 238 209 176 184 160
181 161 152 137 168 124 121 141 128 117 158 168 74 143 158 178 197 251 253 277 246 235 247 220 205 196 173 146 133 108 120 136 211 327 277 202 185 178
138 150 143 162 199 190 159 148 140 161 101 148 155 124 160 160 202 200 191 223 222 195 230 242 256 199 188 182 166 155 170 242 362 378 289 239 214 223
113 133 133 166 154 150 174 145 148 156 155 118 229 297 293 223 185 226 210 206 203 191 166 269 315 250 225 198 212 242 283 327 405 441 350 257 246 230
69 90 101 128 180 179 195 193 186 180 184 191 230 364 472 431 310 304 320 316 274 290 171 252 312 273 281 290 317 301 373 435 488 524 438 318 319 351
112 105 76 91 158 142 184 212 189 221 213 208 286 420 375 354 304 298 271 278 243 259 261 205 216 269 367 398 453 507 451 528 584 565 489 424 460 470
134 90 101 77 91 118 171 186 175 215 220 208 360 417 400 345 298 296 256 267 231 233 240 255 275 279 357 496 494 560 549 651 649 589 535 527 533 499
117 125 95 79 87 96 115 157 172 222 201 275 316 335 293 281 277 336 340 323 215 214 272 299 345 386 479 493 552 651 739 675 648 634 583 550 575 580
106 123 103 101 78 87 68 97 133 177 198 255 329 335 285 270 337 314 328 295 279 248 290 332 385 409 530 609 726 731 919 863 766 747 785 796 675 549
89 85 88 79 52 81 74 134 119 154 193 384 288 253 229 194 249 262 300 413 390 267 360 323 366 392 450 601 774 909 1032 1191 1028 953 929 797 734 564
47 53 50 53 73 97 78 62 172 186 202 179 298 241 212 209 276 401 382 371 344 294 346 374 396 479 513 576 684 850 1094 933 910 873 721 624 562 441
31 14 27 34 30 74 73 63 75 117 168 227 276 245 217 240 335 265 345 358 407 324 328 457 454 483 498 524 624 675 742 583 399 445 456 402 362 453
-17 -4 0 54 64 46 70 53 74 85 127 179 147 225 345 391 328 337 287 364 415 312 286 514 454 541 547 447 630 661 685 695 629 452 316 326 361 381
-9 -7 3 56 93 61 34 47 64 79 127 181 237 288 300 368 340 372 369 362 325 285 223 398 368 564 659 611 578 668 707 716 696 527 382 345 320 337
15 29 53 43 38 18 38 65 86 103 189 243 240 289 354 351 466 566 524 490 438 304 159 339 352 382 421 531 656 640 791 678 650 630 449 365 440 355
52 51 80 65 39 19 41 70 93 117 137 142 300 315 294 351 448 512 536 541 527 484 440 364 364 413 440 482 509 626 671 696 558 522 426 384 413 339
117 99 88 97 94 76 74 89 120 109 138 197 261 255 323 389 390 464 493 596 569 551 525 448 429 444 368 463 473 453 560 504 379 409 404 426 348 288
124 136 133 141 142 143 144 136 138 145 151 183 223 309 363 387 522 529 516 456 550 512 521 481 505 547 507 533 335 475 448 443 436 404 356 363 315 245
88 163 166 155 175 161 146 157 162 158 131 186 210 312 313 447 473 544 576 540 468 490 470 430 410 442 487 505 430 337 441 457 446 394 321 271 261 181
101 144 165 170 157 148 144 144 148 147 174 192 264 263 343 375 401 446 415 472 518 502 460 389 353 347 419 495 434 376 323 374 349 328 288 235 244 230
115 143 129 155 167 145 135 133 124 134 150 199 248 233 368 421 408 412 443 454 480 482 470 401 390 457 470 482 531 549 502 378 266 272 258 242 267 223
116 132 128 141 149 160 165 128 108 126 132 183 240 236 323 343 465 462 449 453 445 518 686 686 583 410 382 459 560 543 519 461 407 338 322 251 195 201
114 129 137 128 135 151 161 165 142 129 115 149 195 225 255 337 446 532 615 621 651 590 594 597 508 453 489 496 481 458 425 353 304 267 242 161 133 137